Regional Weather Roundup
Issued by NWS

Home | Current Version | Previous Version | Text Only | Print | Product List | Glossary On
Versions: 1 2 3 4 5 6 7 8 9 10 11 12 13 14 15 16 17 18 19 20 21 22 23 24 25 26 27 28 29 30 31 32 33 34 35 36 37 38 39 40 41 42 43 44 45 46 47 48 49 50
000
ASUS42 KTBW 170610
RWRFL
FLORIDA REGIONAL WEATHER ROUNDUP
NATIONAL WEATHER SERVICE TAMPA BAY RUSKIN FL
200 AM EDT WED SEP 17 2014

NOTE: "FAIR" INDICATES FEW OR NO CLOUDS BELOW 12,000 FEET WITH NO
SIGNIFICANT WEATHER AND/OR OBSTRUCTIONS TO VISIBILITY.


FLZ001>010-012>015-112-114-115-170700-
PANHANDLE FLORIDA

CITY           SKY/WX    TMP DP  RH WIND       PRES   REMARKS
PENSACOLA      CLOUDY    72  72 100 CALM      29.96S
PENSACOLA NAS  MOCLDY    73  73 100 W5        29.95F
MILTON NAS     CLOUDY    73  70  90 CALM      29.97S
CRESTVIEW      CLOUDY    71  71 100 CALM      29.99F
DUKE FIELD     FAIR      72  72 100 S2        29.97F
VALPARAISO     MOCLDY    74  71  89 CALM      29.97F
MARY ESTHER    CLOUDY    73  69  86 E1        29.96S
PANAMA CITY    MOCLDY    73  70  90 CALM      29.96F
TYNDALL AFB    MOCLDY    75  75 100 E2        29.96F
APALACHICOLA   CLOUDY    77  72  84 CALM      29.95F

STATION/POSITION SKY/WX   TEMP    WIND        PRES    WAVE   SWELL
                          AIR SEA DIR/SP/G            HT/PER HT/PER
                          (F)     (DEG/KT/KT) (MB)    (FT/S) (FT/S)
30.1N   87.6W              78 86  330/  6/  8 1014.5F   2/ 3   2/ 6
29.2N   88.2W              81 85  320/  6/  8 1015.5F   3/ 4   2/ 4
28.8N   86.0W              80 85  310/ 12/ 16 1014.5F   3/ 3   2/ 6
PANAMA CITY BEAC           72 86   10/  7/  9 1014.6F
CAPE SAN BLAS    NOT AVBL
TOWER C                    79      CALM  /  1 1013.9F
28.5N   84.5W              81 85  280/ 10/ 14 1014.7F   3/ 6   2/ 6

$$
FLZ011-016>038-118-127-128-134-139-239-170700-
NORTH FLORIDA

CITY           SKY/WX    TMP DP  RH WIND       PRES   REMARKS
MARIANNA       CLOUDY    71  71 100 CALM      29.97S FOG
TALLAHASSEE    PTCLDY    74  72  93 CALM      29.96F
PERRY          MOCLDY    72  70  94 CALM      29.96F
CROSS CITY       N/A     73  72  96 CALM      29.96F
LAKE CITY      MOCLDY    70  70 100 CALM      29.96F
GAINESVILLE    CLOUDY    71  71 100 W5        29.96S
MAYPORT NAS    CLOUDY    74  72  93 VRB3      29.93F
JACKSONVILLE   CLOUDY    72  72 100 W5        29.94S
JAX NAS        CLOUDY    75  72  90 W5        29.95S
JAX CRAIG      CLOUDY    73  71  93 W3        29.94F
JAX CECIL      CLOUDY    73  72  94 W5        29.95F
ST AUGUSTINE   CLOUDY    74  73  97 SW5       29.95S

STATION/POSITION SKY/WX   TEMP    WIND        PRES    WAVE   SWELL
                          AIR SEA DIR/SP/G            HT/PER HT/PER
                          (F)     (DEG/KT/KT) (MB)    (FT/S) (FT/S)
SHELL POINT                76      CALM  /  1   N/A
KEATON BEACH               79     290/  8/ 10 1014.2F
CEDAR KEY                  77     300/  2/  3 1014.9F
FERNANDINA                 74 85  310/  6/  8 1013.1F
30.7N   81.3W                 83                N/A     2/13
MAYPORT                    75 84  270/  6/  7   N/A
31.4N   80.9W              76 84   CALM  /  2 1012.7F   1/13   2/13
ST AUGUSTINE               74     250/  7/  9 1014.5F

$$
FLZ040-043>046-052-053-057-058-063-144-170700-
INTERIOR CENTRAL FLORIDA

CITY           SKY/WX    TMP DP  RH WIND       PRES   REMARKS
OCALA          PTCLDY    72  70  94 CALM      29.96F
THE VILLAGES     N/A     75  73  94 CALM      29.87S FOG
LEESBURG       MOCLDY    76  72  87 W5        29.97F
SANFORD        MOCLDY    76  72  87 W6        29.95F
ORLANDO EXEC   MOCLDY    77  72  84 SW7       29.96F
ORLANDO INTL   CLOUDY    75  73  93 SW7       29.97F
LAKELAND       MOCLDY   N/A N/A N/A SW5       29.97F
BARTOW         FAIR      72 N/A N/A S6        29.99S
OKEECHOBEE       N/A     70  70 100 MISG        N/A

$$
FLZ041-047-054-059-064-141-147-170700-
EAST CENTRAL FLORIDA

CITY           SKY/WX    TMP DP  RH WIND       PRES   REMARKS
DAYTONA BEACH  MOCLDY    74  73  97 W3        29.95F
DELAND         PTCLDY    73  73 100 W3        29.97F
JFK SPACE CTR  MOCLDY    77  72  84 SW6       29.96S
CAPE CANAVERAL PTCLDY    77  72  84 SW3       29.96S
PATRICK AFB    PTCLDY    76  73  89 SW10      29.97S
MELBOURNE      PTCLDY    74  71  91 SW5       29.97F
VERO BEACH     CLEAR     72  69  90 SW5       29.98F
FT PIERCE      CLEAR     73  70  90 SW5       29.98F
STUART         CLEAR     73  72  94 W5        29.99F

STATION/POSITION SKY/WX   TEMP    WIND        PRES    WAVE   SWELL
                          AIR SEA DIR/SP/G            HT/PER HT/PER
                          (F)     (DEG/KT/KT) (MB)    (FT/S) (FT/S)
28.5N   80.2W              81 85  250/ 12/ 14 1014.7F
28.9N   78.5W              78 85  260/ 16/ 17 1014.5F   3/12   2/12
TRIDENT PIER               78 86  210/  8/  9 1014.4R
28.4N   80.5W                 85                N/A     1/13
27.6N   80.2W                 84                N/A     1/13

$$
FLZ050-056-061-142-242-148-248-149-249-151-251-155-255-
160-260-170700-
WEST CENTRAL FLORIDA

CITY           SKY/WX    TMP DP  RH WIND       PRES   REMARKS
CRYSTAL RIVER  FAIR      72  70  94 CALM      29.96F
INVERNESS      FAIR      72  63  73 CALM      29.96F
BROOKSVILLE    PTCLDY    74  73  97 S5        29.97F
ZEPHYRHILLS    FAIR      66  66 100 SW5       29.98S
CLEARWATER     MOCLDY    77  74  90 S5        29.97F
TAMPA INTL     MOCLDY    80  73  79 SW7       29.97F
TAMPA EXEC     MOCLDY    77  73  88 CALM      29.98F
PLANT CITY     MOCLDY    75 N/A N/A W5        29.99F
MACDILL AFB    MOCLDY    80  75  85 W7        29.97F
ST PETERSBURG  MOCLDY    81  72  74 W5        29.96F
SARASOTA       MOCLDY    79  73  82 S3        29.97F
VENICE           N/A    N/A N/A N/A MISG        N/A

STATION/POSITION SKY/WX   TEMP    WIND        PRES    WAVE   SWELL
                          AIR SEA DIR/SP/G            HT/PER HT/PER
                          (F)     (DEG/KT/KT) (MB)    (FT/S) (FT/S)
CEDAR KEY                  77     300/  2/  3 1014.9F
28.5N   84.5W              81 85  280/ 10/ 14 1014.7F   3/ 6   2/ 6
27.3N   84.3W                 85                N/A     2/ 5
CLEARWATER BEACH NOT AVBL
MIDDLE TAMPA BAY           83     260/ 10/ 12 1015.3F
VENICE                     77 87  130/  6/  7 1015.2F

$$
FLZ066-069-070-075>078-162-262-165-265-170700-
SOUTHWEST FLORIDA AND KEYS

CITY           SKY/WX    TMP DP  RH WIND       PRES   REMARKS
PUNTA GORDA    PTCLDY    76  72  87 MISG      30.01F
FT MYERS       PTCLDY    74  71  91 CALM      29.99F
SOUTHWEST INTL PTCLDY    75  70  84 W3        29.99F
NAPLES         PTCLDY    77  72  84 CALM      29.98F
MARCO ISLAND   CLOUDY    75  72  88 NE3       29.98F
MARATHON       CLEAR     79  76  90 CALM      29.98F
KEY WEST NAS   PTCLDY    81  76  84 E6        29.98F
KEY WEST INTL  PTCLDY    81  75  82 E5        29.99F

STATION/POSITION SKY/WX   TEMP    WIND        PRES    WAVE   SWELL
                          AIR SEA DIR/SP/G            HT/PER HT/PER
                          (F)     (DEG/KT/KT) (MB)    (FT/S) (FT/S)
VENICE                     77 87  130/  6/  7 1015.2F
NAPLES                     77 89   40/  2/  2 1016.0F
DRY TORTUGAS               83      90/  4/  5 1015.3F
NW FL BAY                  82     110/  4/  5 1016.3F
SAND KEY                   82      90/  7/ 12 1015.3F
SOMBRERO KEY               81      70/  5/  6 1016.0F
LONG KEY                   82 85  130/  3/  4 1015.9F
MOLASSES REEF              81 85   90/  2/  2 1015.1F

$$
FLZ067-068-071>074-168-172>174-170700-
SOUTHEAST FLORIDA

CITY           SKY/WX    TMP DP  RH WIND       PRES   REMARKS
W PALM BEACH   PTCLDY    76  73  91 CALM      29.97F
FT LAUDER-EXEC CLEAR     75  74  96 CALM      29.98F
FT LAUDERDALE  MOCLDY    78  72  81 N6        29.97F
POMPANO BEACH  CLEAR     78  71  79 CALM      29.98F
PEMBROKE PINES PTCLDY    76  74  93 N3        29.99F
OPA LOCKA      PTCLDY    78  74  87 N3        29.99F
MIAMI          MOCLDY    79  74  84 NW3       29.99F
WEST KENDALL   PTCLDY    77  73  87 CALM      29.99F
HOMESTEAD      PTCLDY    76  73  88 NW2       29.98F

STATION/POSITION SKY/WX   TEMP    WIND        PRES    WAVE   SWELL
                          AIR SEA DIR/SP/G            HT/PER HT/PER
                          (F)     (DEG/KT/KT) (MB)    (FT/S) (FT/S)
PORT EVERGLADES            77     320/  6/  7 1015.1
VIRGINIA KEY               81 86  340/  2/  3   N/A
LAKE WORTH                 77 85  290/  3/  5 1015.0F
FOWEY ROCKS                81 85   CALM  /  1 1015.4F
SETTLEMENT POINT           82     190/  8/  9 1015.4F

$$



USA.gov is the U.S. government's official web portal to all federal, state and local government web resources and services.